W4HSV Weather Reports


time (UTC)temp
F
wind
direction
speed
knots
gust
knots
rain 1hr
in
rain 24hr
in
rain mn
in
humidity
%
barometer
mb
20260506091730 70 211 9.6 19.1 0.00 0.00 0.00 78 1009.0
20260506091615 70 227 7.8 19.1 0.00 0.00 0.00 78 1009.0
20260506091522 70 195 7.8 19.1 0.00 0.00 0.00 78 1009.0
20260506091429 70 223 9.6 19.1 0.00 0.00 0.00 78 1008.9
20260506091317 70 198 10.4 19.1 0.00 0.00 0.00 78 1009.0
20260506091227 70 188 8.7 19.1 0.00 0.00 0.00 78 1009.0
20260506091136 70 246 8.7 19.1 0.00 0.00 0.00 78 1009.1
20260506091023 70 213 10.4 19.1 0.00 0.00 0.00 78 1009.1
20260506090929 70 187 9.6 20.0 0.00 0.00 0.00 78 1009.0
20260506090817 70 213 9.6 15.6 0.00 0.00 0.00 78 1009.1
20260506090725 70 223 8.7 15.6 0.00 0.00 0.00 77 1009.1
20260506090618 70 194 7.0 19.1 0.00 0.00 0.00 77 1009.0
20260506090549 70 200 6.1 19.1 0.00 0.00 0.00 77 1009.0
20260506090321 70 179 7.8 19.1 0.00 0.00 0.00 77 1009.0
20260506090250 70 215 8.7 19.1 0.00 0.00 0.00 77 1009.0
20260506090118 70 279 7.0 19.1 0.00 0.00 0.00 77 1009.0
20260506090029 70 223 7.0 19.1 0.00 0.00 0.00 77 1009.0
20260506085914 70 177 8.7 19.1 0.00 0.00 0.00 77 1008.9
20260506085822 70 205 8.7 19.1 0.00 0.00 0.00 78 1008.9
20260506085729 70 186 9.6 19.1 0.00 0.00 0.00 77 1008.9
20260506085614 70 192 10.4 19.1 0.00 0.00 0.00 77 1009.0
20260506085543 70 204 9.6 19.1 0.00 0.00 0.00 77 1009.0
20260506085412 70 198 8.7 15.6 0.00 0.00 0.00 77 1009.0
20260506085320 70 176 7.8 15.6 0.00 0.00 0.00 77 1009.0
20260506085227 70 190 7.0 15.6 0.00 0.00 0.00 77 1009.1
20260506085114 70 217 7.0 15.6 0.00 0.00 0.00 77 1009.0
20260506085044 70 186 7.0 15.6 0.00 0.00 0.00 77 1009.0
20260506084822 70 176 7.8 15.6 0.00 0.00 0.00 77 1009.1
20260506084729 70 178 8.7 15.6 0.00 0.00 0.00 77 1008.9
20260506084637 70 199 7.8 18.2 0.00 0.00 0.00 77 1008.9
20260506084543 70 259 6.1 13.0 0.00 0.00 0.00 77 1008.9
20260506084410 70 162 5.2 13.0 0.00 0.00 0.00 77 1008.9
20260506084317 70 238 6.1 13.0 0.00 0.00 0.00 77 1008.8
20260506084245 70 175 6.1 13.0 0.00 0.00 0.00 77 1008.8
20260506084117 70 192 7.0 13.0 0.00 0.00 0.00 77 1008.8
20260506084045 70 208 7.8 16.5 0.00 0.00 0.00 77 1008.8
20260506083911 70 209 7.0 16.5 0.00 0.00 0.00 77 1008.9
20260506083838 70 189 6.1 16.5 0.00 0.00 0.00 76 1008.9
20260506083724 70 177 7.0 16.5 0.00 0.00 0.00 76 1008.9
20260506083611 70 180 6.1 16.5 0.00 0.00 0.00 76 1008.9
20260506083544 70 168 7.0 16.5 0.00 0.00 0.00 76 1008.9
20260506083337 70 198 8.7 16.5 0.00 0.00 0.00 76 1008.9
20260506083242 70 190 10.4 16.5 0.00 0.00 0.00 76 1008.9
20260506083128 70 202 10.4 16.5 0.00 0.00 0.00 76 1008.9
20260506083015 70 217 7.8 13.0 0.00 0.00 0.00 76 1009.0
20260506082927 70 166 7.0 13.0 0.00 0.00 0.00 76 1009.0
20260506082814 70 211 7.0 13.9 0.00 0.00 0.00 76 1008.9
20260506082721 70 190 7.0 13.9 0.00 0.00 0.00 76 1008.9
20260506082629 70 195 6.1 13.9 0.00 0.00 0.00 76 1009.0
20260506082516 70 210 7.0 15.6 0.00 0.00 0.00 75 1008.9
20260506082422 70 229 6.1 16.5 0.00 0.00 0.00 75 1008.9
20260506082313 70 182 6.1 16.5 0.00 0.00 0.00 75 1008.9
20260506082220 71 200 7.8 16.5 0.00 0.00 0.00 75 1008.9
20260506082129 71 242 8.7 16.5 0.00 0.00 0.00 74 1008.8
20260506082100 71 200 8.7 16.5 0.00 0.00 0.00 74 1008.8
20260506081818 71 203 8.7 16.5 0.00 0.00 0.00 74 1008.8
20260506081724 71 186 10.4 16.5 0.00 0.00 0.00 74 1008.8
20260506081611 71 167 10.4 16.5 0.00 0.00 0.00 74 1008.8
20260506081519 71 184 8.7 15.6 0.00 0.00 0.00 74 1008.9
20260506081425 71 167 8.7 13.9 0.00 0.00 0.00 74 1008.9
20260506081313 71 171 7.0 13.9 0.00 0.00 0.00 74 1008.8
20260506081223 71 192 6.1 13.9 0.00 0.00 0.00 74 1008.8
20260506081111 71 228 6.1 13.9 0.00 0.00 0.00 74 1008.9
20260506081018 71 216 8.7 13.9 0.00 0.00 0.00 73 1008.9
20260506080925 71 207 7.8 13.9 0.00 0.00 0.00 73 1008.9
20260506080832 71 197 6.1 20.9 0.00 0.00 0.00 73 1008.8
20260506080717 71 184 6.1 20.9 0.00 0.00 0.00 73 1008.8
20260506080628 71 187 6.1 20.9 0.00 0.00 0.00 73 1008.8
20260506080558 71 223 5.2 20.9 0.00 0.00 0.00 73 1008.9
20260506080312 71 196 7.0 20.9 0.00 0.00 0.00 73 1008.7
20260506080218 71 187 7.0 20.9 0.00 0.00 0.00 73 1008.8
20260506080146 71 221 8.7 20.9 0.00 0.00 0.00 73 1008.8
20260506073330 71 230 8.7 16.5 0.00 0.00 0.00 71 1008.8
20260506073218 71 191 9.6 16.5 0.00 0.00 0.00 71 1008.8
20260506073129 71 207 9.6 16.5 0.00 0.00 0.00 71 1008.8
20260506073016 71 198 9.6 12.2 0.00 0.00 0.00 71 1008.9
20260506072922 71 210 8.7 13.0 0.00 0.00 0.00 71 1008.9
20260506072828 71 203 8.7 13.0 0.00 0.00 0.00 71 1008.8
20260506072716 71 191 7.8 13.0 0.00 0.00 0.00 71 1008.8
20260506072622 71 199 7.0 13.0 0.00 0.00 0.00 71 1008.8
20260506072513 71 215 7.0 13.0 0.00 0.00 0.00 71 1008.8
20260506072421 71 180 7.0 13.9 0.00 0.00 0.00 71 1008.8
20260506072328 71 168 7.0 15.6 0.00 0.00 0.00 71 1008.8
20260506072235 71 161 6.1 15.6 0.00 0.00 0.00 71 1008.8
20260506072121 71 199 6.1 15.6 0.00 0.00 0.00 71 1008.8
20260506072054 71 145 6.1 15.6 0.00 0.00 0.00 71 1008.8
20260506071827 71 192 7.8 15.6 0.00 0.00 0.00 71 1008.8
20260506071715 71 219 9.6 15.6 0.00 0.00 0.00 71 1008.8
20260506071623 71 180 9.6 15.6 0.00 0.00 0.00 71 1008.8
20260506071529 71 200 9.6 15.6 0.00 0.00 0.00 71 1008.7
20260506071441 71 209 8.7 13.9 0.00 0.00 0.00 71 1008.7
20260506071326 71 207 6.1 13.9 0.00 0.00 0.00 71 1008.7
20260506071214 71 191 5.2 13.9 0.00 0.00 0.00 71 1008.6
20260506071122 71 197 7.8 13.9 0.00 0.00 0.00 71 1008.6
20260506071030 71 196 7.8 13.9 0.00 0.00 0.00 71 1008.5
20260506070938 71 151 7.8 13.9 0.00 0.00 0.00 70 1008.5
20260506070828 71 197 7.0 13.9 0.00 0.00 0.00 70 1008.5
20260506070736 71 163 6.1 13.9 0.00 0.00 0.00 70 1008.7
20260506070642 71 209 5.2 13.9 0.00 0.00 0.00 70 1008.7
20260506070551 71 191 5.2 13.9 0.00 0.00 0.00 70 1008.6
20260506070323 71 195 7.0 13.9 0.00 0.00 0.00 70 1008.6
20260506070215 71 197 7.0 13.9 0.00 0.00 0.00 70 1008.5
20260506070123 71 198 6.1 11.3 0.00 0.00 0.00 70 1008.5
20260506062514 71 192 4.3 10.4 0.00 0.00 0.00 70 1008.8
20260506062442 71 183 5.2 12.2 0.00 0.00 0.00 70 1008.8
20260506062329 71 207 5.2 12.2 0.00 0.00 0.00 70 1008.8
20260506062256 71 140 5.2 12.2 0.00 0.00 0.00 70 1008.7
20260506062046 71 146 5.2 12.2 0.00 0.00 0.00 70 1008.8
20260506061819 71 188 6.1 12.2 0.00 0.00 0.00 70 1009.0
20260506061747 71 193 7.0 12.2 0.00 0.00 0.00 70 1009.1
20260506061634 71 190 7.8 12.2 0.00 0.00 0.00 70 1009.2
20260506061541 71 202 7.0 12.2 0.00 0.00 0.00 70 1009.2
20260506061427 71 242 7.0 11.3 0.00 0.00 0.00 70 1009.1
20260506061320 71 189 7.8 10.4 0.00 0.00 0.00 70 1009.2
20260506061227 71 242 7.0 10.4 0.00 0.00 0.00 70 1009.2
20260506061114 71 196 5.2 9.6 0.00 0.00 0.00 70 1009.2
20260506061020 71 183 5.2 9.6 0.00 0.00 0.00 70 1009.2
20260506060927 71 190 5.2 9.6 0.00 0.00 0.00 69 1009.2
20260506060819 71 191 5.2 9.6 0.00 0.00 0.00 69 1009.2
20260506060726 71 233 4.3 9.6 0.00 0.00 0.00 69 1009.2
20260506060633 71 218 5.2 9.6 0.00 0.00 0.00 69 1009.2
20260506060603 71 132 5.2 10.4 0.00 0.00 0.00 69 1009.2
20260506060337 71 196 5.2 10.4 0.00 0.00 0.00 69 1009.2
20260506060226 71 187 5.2 10.4 0.00 0.00 0.00 69 1009.2
20260506060115 71 169 5.2 11.3 0.00 0.00 0.00 69 1009.2
20260506051316 71 182 5.2 8.7 0.00 0.00 0.00 67 1009.7
20260506051243 71 186 5.2 8.7 0.00 0.00 0.00 68 1009.7
20260506051129 71 166 6.1 8.7 0.00 0.00 0.00 67 1009.7
20260506051016 71 207 5.2 8.7 0.00 0.00 0.00 67 1009.7
20260506050922 71 197 5.2 8.7 0.00 0.00 0.00 67 1009.7
20260506050829 71 154 4.3 8.7 0.00 0.00 0.00 68 1009.7
20260506050741 71 177 4.3 8.7 0.00 0.00 0.00 67 1009.8
20260506050627 71 156 5.2 8.7 0.00 0.00 0.00 67 1009.8
20260506050557 71 198 5.2 8.7 0.00 0.00 0.00 67 1009.7
20260506050350 71 183 6.1 8.7 0.00 0.00 0.00 67 1009.9
20260506050215 71 194 6.1 9.6 0.00 0.00 0.00 67 1010.0
20260506050124 71 136 6.1 8.7 0.00 0.00 0.00 67 1010.0
20260506045124 71 226 4.3 11.3 0.00 0.00 0.00 67 1009.9
20260506045058 71 178 4.3 11.3 0.00 0.00 0.00 67 1010.0
20260506044832 71 216 7.0 9.6 0.00 0.00 0.00 67 1009.9
20260506044738 71 164 7.0 10.4 0.00 0.00 0.00 67 1009.9
20260506044623 71 192 7.0 10.4 0.00 0.00 0.00 67 1009.9
20260506044511 71 190 6.1 10.4 0.00 0.00 0.00 67 1010.0
20260506044418 71 197 7.0 10.4 0.00 0.00 0.00 67 1009.9
20260506044311 71 185 7.0 10.4 0.00 0.00 0.00 67 1009.8
20260506044217 71 202 5.2 8.7 0.00 0.00 0.00 67 1009.8
20260506044144 72 167 4.3 8.7 0.00 0.00 0.00 67 1009.8
20260506044011 71 171 4.3 8.7 0.00 0.00 0.00 67 1009.8
20260506043918 72 155 5.2 13.0 0.00 0.00 0.00 67 1009.9
20260506043847 71 199 5.2 13.0 0.00 0.00 0.00 67 1009.9
20260506043713 72 180 5.2 13.0 0.00 0.00 0.00 67 1009.8
20260506043624 71 182 4.3 13.0 0.00 0.00 0.00 67 1009.8
20260506043555 72 207 4.3 13.0 0.00 0.00 0.00 67 1009.7
20260506043328 72 201 5.2 13.0 0.00 0.00 0.00 67 1009.8
20260506043216 72 156 6.1 13.0 0.00 0.00 0.00 67 1009.9
20260506043125 72 174 6.1 13.0 0.00 0.00 0.00 67 1009.9
20260506043015 72 191 7.8 12.2 0.00 0.00 0.00 67 1010.0
20260506042922 72 189 7.8 12.2 0.00 0.00 0.00 67 1010.0
20260506042829 72 166 7.0 12.2 0.00 0.00 0.00 67 1010.0
20260506042716 72 171 6.1 10.4 0.00 0.00 0.00 67 1010.1
20260506042624 72 190 7.8 10.4 0.00 0.00 0.00 67 1010.1
20260506042515 71 207 7.8 11.3 0.00 0.00 0.00 67 1010.1
20260506042423 72 162 7.0 11.3 0.00 0.00 0.00 67 1010.1
20260506042311 72 182 7.8 11.3 0.00 0.00 0.00 67 1010.0
20260506042220 72 209 7.0 9.6 0.00 0.00 0.00 67 1010.0
20260506042127 72 190 6.1 10.4 0.00 0.00 0.00 67 1010.0
20260506042103 72 197 6.1 9.6 0.00 0.00 0.00 67 1010.0
20260506041837 72 173 5.2 12.2 0.00 0.00 0.00 67 1010.1
20260506041722 72 208 5.2 12.2 0.00 0.00 0.00 67 1010.1
20260506041651 72 169 6.1 12.2 0.00 0.00 0.00 67 1010.0
20260506041518 72 187 6.1 12.2 0.00 0.00 0.00 67 1010.0
20260506041425 72 188 5.2 12.2 0.00 0.00 0.00 67 1010.0
20260506041316 72 215 4.3 12.2 0.00 0.00 0.00 67 1010.0
20260506041225 72 178 6.1 12.2 0.00 0.00 0.00 67 1010.0
20260506041112 72 174 6.1 12.2 0.00 0.00 0.00 67 1010.1
20260506041020 72 192 5.2 8.7 0.00 0.00 0.00 67 1010.1
20260506040927 72 169 5.2 8.7 0.00 0.00 0.00 67 1010.1
20260506040813 72 199 4.3 8.7 0.00 0.00 0.00 67 1010.1
20260506040724 72 195 4.3 8.7 0.00 0.00 0.00 67 1010.1
20260506040651 72 174 4.3 8.7 0.00 0.00 0.00 67 1010.1
20260506040622 72 127 4.3 8.7 0.00 0.00 0.00 67 1010.0
20260506040314 72 178 4.3 8.7 0.00 0.00 0.00 67 1010.0
20260506040222 72 182 5.2 8.7 0.00 0.00 0.00 67 1010.0
20260506040112 72 191 5.2 8.7 0.00 0.00 0.00 67 1010.0
20260506040039 72 178 4.3 7.8 0.00 0.00 0.00 67 1010.1
20260506035925 72 192 4.3 7.8 0.00 0.00 0.00 67 1010.1
20260506035813 72 171 4.3 8.7 0.00 0.00 0.00 67 1010.1
20260506035722 72 142 4.3 8.7 0.00 0.00 0.00 67 1010.1
20260506035614 72 183 4.3 8.7 0.00 0.00 0.00 67 1010.1
20260506035521 72 165 3.5 8.7 0.00 0.00 0.00 67 1010.1
20260506035429 72 161 3.5 8.7 0.00 0.00 0.00 67 1010.1
20260506035316 72 140 4.3 8.7 0.00 0.00 0.00 67 1010.1
20260506035223 72 182 5.2 8.7 0.00 0.00 0.00 67 1010.1
20260506035131 72 184 4.3 8.7 0.00 0.00 0.00 67 1010.0
20260506035106 72 183 3.5 10.4 0.00 0.00 0.00 67 1010.0
20260506034818 72 184 4.3 10.4 0.00 0.00 0.00 67 1010.0
20260506034726 72 194 5.2 10.4 0.00 0.00 0.00 67 1010.0
20260506034614 72 189 5.2 10.4 0.00 0.00 0.00 67 1010.0
20260506034542 72 174 5.2 10.4 0.00 0.00 0.00 67 1010.1
20260506034411 72 141 4.3 10.4 0.00 0.00 0.00 67 1010.1
20260506034319 72 221 4.3 10.4 0.00 0.00 0.00 67 1010.1
20260506034227 72 200 5.2 10.4 0.00 0.00 0.00 67 1010.1
20260506034114 72 196 6.1 10.4 0.00 0.00 0.00 67 1010.1
20260506034021 72 183 5.2 10.4 0.00 0.00 0.00 67 1010.1
20260506033912 72 184 3.5 9.6 0.00 0.00 0.00 67 1010.1
20260506033820 72 189 3.5 9.6 0.00 0.00 0.00 67 1010.0
20260506033746 72 185 3.5 9.6 0.00 0.00 0.00 66 1010.0
20260506033613 72 207 5.2 9.6 0.00 0.00 0.00 67 1010.1
20260506033546 72 190 5.2 9.6 0.00 0.00 0.00 67 1010.1
20260506033323 72 186 6.1 9.6 0.00 0.00 0.00 66 1010.1
20260506033211 72 189 5.2 10.4 0.00 0.00 0.00 66 1010.0
20260506033119 72 197 6.1 10.4 0.00 0.00 0.00 66 1010.0
20260506033027 72 202 6.1 10.4 0.00 0.00 0.00 66 1010.0
20260506032915 72 157 5.2 10.4 0.00 0.00 0.00 66 1009.9
20260506032843 72 171 5.2 10.4 0.00 0.00 0.00 66 1009.9
20260506032713 72 162 6.1 10.4 0.00 0.00 0.00 66 1009.9
20260506032621 72 134 6.1 10.4 0.00 0.00 0.00 66 1009.9
20260506032529 72 183 6.1 10.4 0.00 0.00 0.00 66 1010.1
20260506032416 72 212 6.1 10.4 0.00 0.00 0.00 66 1010.1
20260506032323 72 202 6.1 10.4 0.00 0.00 0.00 66 1010.1
20260506032216 72 172 5.2 10.4 0.00 0.00 0.00 66 1010.2
20260506032121 72 184 5.2 10.4 0.00 0.00 0.00 66 1010.2
20260506032051 72 188 6.1 10.4 0.00 0.00 0.00 66 1010.1
20260506031844 72 182 6.1 10.4 0.00 0.00 0.00 66 1010.1
20260506031710 72 169 6.1 10.4 0.00 0.00 0.00 66 1010.1
20260506031618 72 195 7.0 10.4 0.00 0.00 0.00 66 1010.1
20260506031530 72 190 7.0 10.4 0.00 0.00 0.00 66 1010.1
20260506031416 72 190 5.2 12.2 0.00 0.00 0.00 66 1010.0
20260506031324 72 131 4.3 12.2 0.00 0.00 0.00 67 1010.0
20260506031212 72 215 5.2 12.2 0.00 0.00 0.00 67 1010.0
20260506031118 72 184 6.1 12.2 0.00 0.00 0.00 66 1010.0
20260506031011 72 169 6.1 9.6 0.00 0.00 0.00 66 1009.9
20260506030938 72 196 5.2 9.6 0.00 0.00 0.00 66 1010.0
20260506030824 72 167 6.1 9.6 0.00 0.00 0.00 66 1010.0
20260506030713 72 173 5.2 9.6 0.00 0.00 0.00 66 1010.0
20260506030641 72 192 5.2 9.6 0.00 0.00 0.00 66 1010.0
20260506030615 72 180 5.2 9.6 0.00 0.00 0.00 66 1009.9
20260506030349 72 170 5.2 9.6 0.00 0.00 0.00 66 1010.0
20260506030216 72 211 5.2 9.6 0.00 0.00 0.00 66 1010.1
20260506030122 72 204 6.1 9.6 0.00 0.00 0.00 66 1010.1
20260506030010 72 184 5.2 8.7 0.00 0.00 0.00 66 1010.1
20260506025917 72 179 5.2 8.7 0.00 0.00 0.00 66 1010.2
20260506025844 72 194 5.2 8.7 0.00 0.00 0.00 66 1010.2
20260506025714 72 171 6.1 8.7 0.00 0.00 0.00 66 1010.1
20260506025622 72 188 6.1 8.7 0.00 0.00 0.00 66 1010.1
20260506025530 72 175 5.2 8.7 0.00 0.00 0.00 66 1010.1
20260506025438 72 219 3.5 8.7 0.00 0.00 0.00 66 1010.1
20260506025346 72 182 5.2 8.7 0.00 0.00 0.00 66 1010.1
20260506025212 72 169 5.2 8.7 0.00 0.00 0.00 66 1010.1
20260506025125 72 190 6.1 8.7 0.00 0.00 0.00 66 1010.1
20260506025055 72 188 6.1 8.7 0.00 0.00 0.00 66 1010.0
20260506024829 72 187 6.1 8.7 0.00 0.00 0.00 66 1010.1
20260506024718 72 170 4.3 8.7 0.00 0.00 0.00 67 1010.0
20260506024610 72 151 3.5 8.7 0.00 0.00 0.00 66 1009.9
20260506024517 72 209 3.5 8.7 0.00 0.00 0.00 67 1009.9
20260506024424 72 188 2.6 8.7 0.00 0.00 0.00 66 1009.9
20260506024312 72 199 3.5 8.7 0.00 0.00 0.00 66 1009.7
20260506024240 72 130 3.5 8.7 0.00 0.00 0.00 66 1009.8
20260506024126 72 165 4.3 8.7 0.00 0.00 0.00 66 1009.8
20260506024014 72 232 5.2 9.6 0.00 0.00 0.00 66 1009.8
20260506023924 72 180 6.1 8.7 0.00 0.00 0.00 66 1009.8
20260506023812 72 178 5.2 8.7 0.00 0.00 0.00 66 1009.7
20260506023720 72 225 4.3 8.7 0.00 0.00 0.00 67 1009.7
20260506023627 72 139 3.5 8.7 0.00 0.00 0.00 66 1009.7
20260506023602 72 141 3.5 8.7 0.00 0.00 0.00 67 1009.7
20260506023315 72 189 3.5 8.7 0.00 0.00 0.00 67 1009.7
20260506023222 72 178 4.3 11.3 0.00 0.00 0.00 67 1009.7
20260506023130 72 146 5.2 11.3 0.00 0.00 0.00 66 1009.8
20260506023017 72 186 6.1 11.3 0.00 0.00 0.00 66 1009.9
20260506022925 72 169 6.1 11.3 0.00 0.00 0.00 67 1009.9
20260506022817 72 196 5.2 11.3 0.00 0.00 0.00 67 1009.9
20260506022725 72 163 5.2 11.3 0.00 0.00 0.00 67 1009.9
20260506022613 72 154 5.2 11.3 0.00 0.00 0.00 67 1009.9
20260506022521 72 179 7.0 11.3 0.00 0.00 0.00 67 1009.9
20260506022427 72 166 7.8 11.3 0.00 0.00 0.00 67 1010.0
20260506022319 72 201 7.0 11.3 0.00 0.00 0.00 67 1009.9
20260506022226 72 190 5.2 11.3 0.00 0.00 0.00 67 1009.9
20260506022134 72 173 6.1 11.3 0.00 0.00 0.00 67 1009.7
20260506022103 72 208 6.1 11.3 0.00 0.00 0.00 67 1009.8
20260506021817 72 191 6.1 11.3 0.00 0.00 0.00 67 1009.7
20260506021729 72 179 6.1 11.3 0.00 0.00 0.00 67 1009.7
20260506021616 72 202 7.0 11.3 0.00 0.00 0.00 67 1009.7
20260506021523 72 194 7.0 10.4 0.00 0.00 0.00 67 1009.7
20260506021429 72 187 6.1 8.7 0.00 0.00 0.00 67 1009.7
20260506021317 71 196 6.1 9.6 0.00 0.00 0.00 67 1009.7
20260506021225 72 178 5.2 8.7 0.00 0.00 0.00 67 1009.7
20260506021116 72 175 4.3 8.7 0.00 0.00 0.00 67 1009.7
20260506021025 72 187 4.3 8.7 0.00 0.00 0.00 67 1009.7
20260506020931 71 159 5.2 8.7 0.00 0.00 0.00 67 1009.6
20260506020817 71 187 6.1 8.7 0.00 0.00 0.00 67 1009.5
20260506020723 71 184 6.1 8.7 0.00 0.00 0.00 67 1009.5
20260506020615 71 168 4.3 8.7 0.00 0.00 0.00 67 1009.3
20260506020546 72 202 5.2 8.7 0.00 0.00 0.00 67 1009.3
20260506020318 72 213 5.2 8.7 0.00 0.00 0.00 67 1009.0
20260506020225 72 151 4.3 8.7 0.00 0.00 0.00 67 1009.0
20260506020111 72 165 5.2 8.7 0.00 0.00 0.00 67 1008.9
20260506020022 72 132 5.2 8.7 0.00 0.00 0.00 67 1008.9
20260506015929 72 132 5.2 8.7 0.00 0.00 0.00 67 1008.9
20260506015837 72 140 4.3 8.7 0.00 0.00 0.00 67 1009.0
20260506015724 72 178 5.2 8.7 0.00 0.00 0.00 67 1009.0
20260506015612 72 215 6.1 8.7 0.00 0.00 0.00 67 1009.2
20260506015520 72 163 5.2 8.7 0.00 0.00 0.00 66 1009.2
20260506015411 72 211 4.3 7.0 0.00 0.00 0.00 66 1009.4
20260506015319 72 160 4.3 11.3 0.00 0.00 0.00 66 1009.3
20260506015226 72 159 4.3 12.2 0.00 0.00 0.00 66 1009.3
20260506015134 72 151 4.3 12.2 0.00 0.00 0.00 66 1009.3
20260506015048 72 192 3.5 12.2 0.00 0.00 0.00 66 1009.3
20260506014822 72 142 4.3 12.2 0.00 0.00 0.00 66 1009.3
20260506014729 72 172 5.2 12.2 0.00 0.00 0.00 66 1009.4
20260506014617 72 148 7.0 12.2 0.00 0.00 0.00 66 1009.5
20260506014524 72 185 7.0 13.0 0.00 0.00 0.00 66 1009.5
20260506014412 72 179 6.1 9.6 0.00 0.00 0.00 66 1009.6
20260506014322 72 159 6.1 13.0 0.00 0.00 0.00 66 1009.6
20260506014229 72 156 5.2 13.0 0.00 0.00 0.00 66 1009.7
20260506014117 72 155 3.5 13.0 0.00 0.00 0.00 66 1009.8
20260506014026 72 198 4.3 13.0 0.00 0.00 0.00 66 1009.8
20260506013912 72 173 5.2 13.0 0.00 0.00 0.00 66 1009.8
20260506013825 72 157 6.1 13.0 0.00 0.00 0.00 66 1009.8
20260506013713 72 161 7.0 13.0 0.00 0.00 0.00 66 1009.8
20260506013619 72 171 5.2 13.0 0.00 0.00 0.00 66 1009.8
20260506013547 72 167 6.1 9.6 0.00 0.00 0.00 66 1009.8
20260506013321 72 227 4.3 8.7 0.00 0.00 0.00 66 1009.8
20260506013232 72 181 4.3 8.7 0.00 0.00 0.00 66 1009.8
20260506013139 72 159 5.2 8.7 0.00 0.00 0.00 66 1009.7
20260506013025 72 188 5.2 8.7 0.00 0.00 0.00 66 1009.7
20260506012912 72 213 4.3 8.7 0.00 0.00 0.00 66 1009.6
20260506012820 72 168 4.3 8.7 0.00 0.00 0.00 66 1009.6
20260506012748 72 148 5.2 8.7 0.00 0.00 0.00 66 1009.6
20260506012619 72 184 7.0 8.7 0.00 0.00 0.00 66 1009.7
20260506012546 72 205 5.2 8.7 0.00 0.00 0.00 66 1009.7
20260506012431 72 187 3.5 7.0 0.00 0.00 0.00 66 1009.7
20260506012318 72 192 2.6 7.0 0.00 0.00 0.00 66 1009.6
20260506012225 72 161 2.6 7.0 0.00 0.00 0.00 66 1009.6
20260506012132 72 207 2.6 7.0 0.00 0.00 0.00 66 1009.6
20260506012108 72 178 3.5 7.0 0.00 0.00 0.00 66 1009.6
20260506011820 72 171 4.3 7.0 0.00 0.00 0.00 66 1009.6
20260506011728 72 168 3.5 7.0 0.00 0.00 0.00 66 1009.6
20260506011615 72 190 4.3 10.4 0.00 0.00 0.00 66 1009.5
20260506011524 72 128 4.3 10.4 0.00 0.00 0.00 65 1009.5
20260506011415 72 160 4.3 10.4 0.00 0.00 0.00 66 1009.5
20260506011323 72 151 3.5 10.4 0.00 0.00 0.00 65 1009.5
20260506011230 72 206 3.5 10.4 0.00 0.00 0.00 65 1009.5
20260506011116 72 143 5.2 10.4 0.00 0.00 0.00 66 1009.4
20260506011045 72 175 6.1 10.4 0.00 0.00 0.00 65 1009.4
20260506010910 72 153 7.0 10.4 0.00 0.00 0.00 65 1009.5
20260506010821 72 118 6.1 9.6 0.00 0.00 0.00 65 1009.5
20260506010727 72 182 6.1 9.6 0.00 0.00 0.00 65 1009.4
20260506010634 72 164 5.2 9.6 0.00 0.00 0.00 65 1009.5
20260506010604 72 142 5.2 9.6 0.00 0.00 0.00 65 1009.5
20260506010317 72 132 5.2 12.2 0.00 0.00 0.00 65 1009.4
20260506010228 72 160 5.2 12.2 0.00 0.00 0.00 65 1009.4
20260506010115 72 144 5.2 12.2 0.00 0.00 0.00 65 1009.4
20260506010023 72 142 4.3 12.2 0.00 0.00 0.00 65 1009.4
20260506005912 72 146 4.3 12.2 0.00 0.00 0.00 65 1009.4
20260506005819 72 175 4.3 12.2 0.00 0.00 0.00 65 1009.4
20260506005711 72 152 6.1 12.2 0.00 0.00 0.00 64 1009.4
20260506005618 72 187 6.1 12.2 0.00 0.00 0.00 65 1009.5
20260506005526 72 165 5.2 11.3 0.00 0.00 0.00 65 1009.5
20260506005412 72 193 5.2 7.8 0.00 0.00 0.00 64 1009.5
20260506005319 72 185 5.2 8.7 0.00 0.00 0.00 64 1009.4
20260506005211 72 164 4.3 9.6 0.00 0.00 0.00 64 1009.4
20260506005118 72 196 5.2 9.6 0.00 0.00 0.00 64 1009.4
20260506005047 72 194 4.3 10.4 0.00 0.00 0.00 65 1009.4
20260506004841 72 196 4.3 10.4 0.00 0.00 0.00 64 1009.5
20260506004726 72 176 4.3 10.4 0.00 0.00 0.00 65 1009.5
20260506004633 72 198 5.2 10.4 0.00 0.00 0.00 64 1009.5
20260506004523 72 197 6.1 10.4 0.00 0.00 0.00 64 1009.5
20260506004412 72 155 6.1 10.4 0.00 0.00 0.00 64 1009.5
20260506004318 72 210 5.2 10.4 0.00 0.00 0.00 64 1009.5
20260506004225 72 184 6.1 10.4 0.00 0.00 0.00 64 1009.5
20260506004112 72 175 5.2 10.4 0.00 0.00 0.00 64 1009.6
20260506004023 72 189 4.3 8.7 0.00 0.00 0.00 64 1009.6
20260506003951 72 193 5.2 8.7 0.00 0.00 0.00 64 1009.6
20260506003816 72 169 6.1 8.7 0.00 0.00 0.00 64 1009.6
20260506003723 72 205 5.2 8.7 0.00 0.00 0.00 64 1009.6
20260506003610 72 182 4.3 9.6 0.00 0.00 0.00 64 1009.6
20260506003545 72 171 4.3 9.6 0.00 0.00 0.00 64 1009.6
20260506003317 72 182 3.5 9.6 0.00 0.00 0.00 64 1009.6
20260506003225 72 188 4.3 9.6 0.00 0.00 0.00 64 1009.6
20260506003112 72 186 4.3 9.6 0.00 0.00 0.00 63 1009.5
20260506003021 72 176 4.3 9.6 0.00 0.00 0.00 64 1009.5
20260506002948 72 150 4.3 9.6 0.00 0.00 0.00 63 1009.5
20260506002819 72 190 5.2 9.6 0.00 0.00 0.00 64 1009.5
20260506002727 72 198 5.2 12.2 0.00 0.00 0.00 63 1009.5
20260506002613 72 144 3.5 12.2 0.00 0.00 0.00 64 1009.3
20260506002541 72 130 3.5 12.2 0.00 0.00 0.00 63 1009.1
20260506002448 72 143 4.3 12.2 0.00 0.00 0.00 63 1009.1
20260506002314 72 139 5.2 12.2 0.00 0.00 0.00 63 1009.3
20260506002242 72 175 5.2 12.2 0.00 0.00 0.00 63 1009.3
20260506002133 72 151 6.1 12.2 0.00 0.00 0.00 63 1009.4
20260506002102 73 147 7.0 12.2 0.00 0.00 0.00 63 1009.5
20260506001815 72 194 7.0 10.4 0.00 0.00 0.00 63 1009.3
20260506001723 72 185 6.1 9.6 0.00 0.00 0.00 63 1009.3
20260506001615 72 158 5.2 9.6 0.00 0.00 0.00 63 1009.2
20260506001521 73 168 5.2 9.6 0.00 0.00 0.00 63 1009.2
20260506001429 73 169 5.2 11.3 0.00 0.00 0.00 63 1009.3
20260506001336 73 199 5.2 11.3 0.00 0.00 0.00 63 1009.2
20260506001223 73 118 4.3 11.3 0.00 0.00 0.00 63 1009.2
20260506001150 73 209 5.2 11.3 0.00 0.00 0.00 63 1009.3
20260506001015 73 184 6.1 11.3 0.00 0.00 0.00 63 1009.5
20260506000928 73 140 6.1 11.3 0.00 0.00 0.00 63 1009.5
20260506000815 73 175 6.1 11.3 0.00 0.00 0.00 63 1009.4
20260506000723 73 183 6.1 11.3 0.00 0.00 0.00 62 1009.4
20260506000651 73 199 6.1 11.3 0.00 0.00 0.00 62 1009.4
20260506000620 73 201 6.1 11.3 0.00 0.00 0.00 62 1009.3
20260506000336 73 160 7.0 11.3 0.00 0.00 0.00 62 1009.2
20260506000222 73 179 7.8 13.0 0.00 0.00 0.00 62 1009.2
20260506000129 73 155 7.8 13.9 0.00 0.00 0.00 62 1009.3
20260506000017 73 204 6.1 13.9 0.00 0.00 0.00 62 1009.4
20260505235924 73 151 4.3 13.9 0.00 0.00 0.00 63 1009.4
20260505235816 73 150 5.2 13.9 0.00 0.00 0.00 62 1009.3
20260505235724 73 191 5.2 13.9 0.00 0.00 0.00 62 1009.3
20260505235613 73 129 6.1 13.9 0.00 0.00 0.00 62 1009.3
20260505235520 73 151 7.8 13.9 0.00 0.00 0.00 62 1009.3
20260505235427 73 154 8.7 13.9 0.00 0.00 0.00 62 1009.4
20260505235313 73 152 7.8 13.9 0.00 0.00 0.00 62 1009.3
20260505235223 73 165 7.8 13.9 0.00 0.00 0.00 62 1009.3
20260505235131 73 130 7.0 12.2 0.00 0.00 0.00 62 1009.3
20260505235101 73 155 5.2 12.2 0.00 0.00 0.00 62 1009.4
20260505234815 73 151 6.1 12.2 0.00 0.00 0.00 62 1009.4
20260505234727 73 170 6.1 12.2 0.00 0.00 0.00 62 1009.4
20260505234614 73 139 5.2 12.2 0.00 0.00 0.00 62 1009.5
20260505234522 73 142 4.3 12.2 0.00 0.00 0.00 62 1009.5
20260505234429 73 115 4.3 13.9 0.00 0.00 0.00 62 1009.7
20260505234317 73 188 4.3 14.8 0.00 0.00 0.00 62 1009.6
20260505234224 73 194 5.2 14.8 0.00 0.00 0.00 62 1009.6
20260505234115 73 128 5.2 14.8 0.00 0.00 0.00 62 1009.7
20260505234022 73 207 5.2 14.8 0.00 0.00 0.00 62 1009.7
20260505233930 73 211 7.0 14.8 0.00 0.00 0.00 61 1009.6
20260505233838 73 184 8.7 14.8 0.00 0.00 0.00 61 1009.7
20260505233724 73 167 9.6 14.8 0.00 0.00 0.00 61 1009.7
20260505233616 73 207 10.4 14.8 0.00 0.00 0.00 61 1009.7
20260505233546 73 196 9.6 14.8 0.00 0.00 0.00 61 1009.7
20260505233320 73 182 7.8 14.8 0.00 0.00 0.00 61 1009.8
20260505233248 73 189 7.8 14.8 0.00 0.00 0.00 61 1009.8
20260505233134 73 213 7.0 14.8 0.00 0.00 0.00 61 1009.9
20260505233020 73 210 8.7 14.8 0.00 0.00 0.00 61 1009.8
20260505232911 73 151 10.4 14.8 0.00 0.00 0.00 61 1009.8
20260505232818 73 184 8.7 13.9 0.00 0.00 0.00 61 1009.8
20260505232725 73 217 7.8 14.8 0.00 0.00 0.00 61 1009.8
20260505232614 73 184 6.1 13.0 0.00 0.00 0.00 61 1009.9
20260505232519 73 197 7.0 13.0 0.00 0.00 0.00 61 1009.9
20260505232411 73 184 7.8 13.0 0.00 0.00 0.00 61 1010.0
20260505232317 73 187 7.8 13.9 0.00 0.00 0.00 61 1010.0
20260505232224 73 203 7.8 13.9 0.00 0.00 0.00 61 1010.0
20260505232112 73 86 7.8 13.9 0.00 0.00 0.00 61 1010.1
20260505232047 73 135 7.0 13.9 0.00 0.00 0.00 61 1010.1
20260505231821 73 166 7.0 13.9 0.00 0.00 0.00 61 1010.1
20260505231730 73 171 7.0 13.9 0.00 0.00 0.00 61 1010.2
20260505231616 73 178 7.8 13.9 0.00 0.00 0.00 60 1010.2
20260505231523 73 192 8.7 13.9 0.00 0.00 0.00 60 1010.2
20260505231410 73 190 7.8 13.0 0.00 0.00 0.00 60 1010.3
20260505231322 73 168 7.8 12.2 0.00 0.00 0.00 60 1010.3
20260505231211 73 157 7.8 13.9 0.00 0.00 0.00 60 1010.4
20260505231118 73 214 9.6 13.9 0.00 0.00 0.00 60 1010.4
20260505231045 74 192 9.6 15.6 0.00 0.00 0.00 60 1010.4
20260505230932 74 183 7.0 15.6 0.00 0.00 0.00 60 1010.4
20260505230818 74 198 7.0 15.6 0.00 0.00 0.00 60 1010.4
20260505230710 74 187 7.8 18.2 0.00 0.00 0.00 60 1010.3
20260505230618 74 170 8.7 18.2 0.00 0.00 0.00 60 1010.4
20260505230547 74 168 7.8 18.2 0.00 0.00 0.00 60 1010.4
20260505230320 74 167 7.8 18.2 0.00 0.00 0.00 60 1010.4
20260505230211 74 189 8.7 18.2 0.00 0.00 0.00 60 1010.3
20260505230119 74 163 8.7 18.2 0.00 0.00 0.00 60 1010.4
20260505230046 74 189 9.6 18.2 0.00 0.00 0.00 60 1010.4
20260505225911 74 169 9.6 18.2 0.00 0.00 0.00 60 1010.2
20260505225819 74 173 8.7 13.9 0.00 0.00 0.00 59 1010.3
20260505225724 74 179 8.7 13.9 0.00 0.00 0.00 59 1010.3
20260505225612 74 192 7.8 12.2 0.00 0.00 0.00 60 1010.2
20260505225523 74 178 7.8 13.9 0.00 0.00 0.00 60 1010.2
20260505225411 74 199 7.8 13.9 0.00 0.00 0.00 60 1010.3
20260505225319 74 207 7.8 13.9 0.00 0.00 0.00 60 1010.3
20260505225228 74 197 5.2 13.9 0.00 0.00 0.00 60 1010.3
20260505225135 74 128 5.2 13.9 0.00 0.00 0.00 60 1010.2
20260505225047 74 181 6.1 13.9 0.00 0.00 0.00 60 1010.2
20260505224820 74 170 8.7 13.9 0.00 0.00 0.00 60 1010.3
20260505224728 74 207 9.6 14.8 0.00 0.00 0.00 60 1010.3
20260505224636 74 176 7.0 13.9 0.00 0.00 0.00 60 1010.3
20260505224542 74 182 7.8 13.0 0.00 0.00 0.00 60 1010.3
20260505224410 74 175 7.8 13.9 0.00 0.00 0.00 60 1010.4
20260505224321 74 204 7.0 13.0 0.00 0.00 0.00 60 1010.4
20260505224249 74 169 7.0 13.0 0.00 0.00 0.00 60 1010.4
20260505224115 74 140 7.0 13.0 0.00 0.00 0.00 60 1010.3
20260505224022 73 192 7.0 13.0 0.00 0.00 0.00 60 1010.3
20260505223949 74 188 7.0 13.0 0.00 0.00 0.00 60 1010.4
20260505223815 73 195 6.1 13.0 0.00 0.00 0.00 60 1010.3
20260505223743 73 174 6.1 13.0 0.00 0.00 0.00 60 1010.3
20260505223613 73 173 7.0 14.8 0.00 0.00 0.00 60 1010.4
20260505223544 73 211 7.0 14.8 0.00 0.00 0.00 60 1010.4
20260505223337 73 209 7.0 14.8 0.00 0.00 0.00 60 1010.6
20260505223225 73 169 7.0 14.8 0.00 0.00 0.00 60 1010.6
20260505223117 74 202 7.0 14.8 0.00 0.00 0.00 60 1010.7
20260505223024 73 193 7.0 14.8 0.00 0.00 0.00 60 1010.7
20260505222911 74 179 7.8 14.8 0.00 0.00 0.00 60 1010.7
20260505222817 74 196 7.0 14.8 0.00 0.00 0.00 60 1010.6
20260505222725 74 166 6.1 13.9 0.00 0.00 0.00 60 1010.6
20260505222632 74 186 7.0 13.9 0.00 0.00 0.00 60 1010.7
20260505222523 74 185 7.0 13.9 0.00 0.00 0.00 60 1010.7
20260505222429 74 197 7.8 13.9 0.00 0.00 0.00 60 1010.7
20260505222337 74 196 7.0 13.9 0.00 0.00 0.00 60 1010.7
20260505222223 74 175 5.2 13.9 0.00 0.00 0.00 60 1010.7
20260505222110 74 185 7.0 13.9 0.00 0.00 0.00 59 1010.7
20260505222044 74 201 7.8 13.9 0.00 0.00 0.00 59 1010.7
20260505221818 74 170 7.0 13.9 0.00 0.00 0.00 60 1010.8
20260505221745 74 182 6.1 13.9 0.00 0.00 0.00 59 1010.8
20260505221611 74 194 5.2 13.9 0.00 0.00 0.00 59 1010.6
20260505221519 74 186 7.0 13.9 0.00 0.00 0.00 59 1010.6
20260505221427 74 186 8.7 13.9 0.00 0.00 0.00 59 1010.6
20260505221318 74 211 7.0 13.0 0.00 0.00 0.00 59 1010.6
20260505221225 74 169 5.2 13.9 0.00 0.00 0.00 59 1010.6
20260505221114 74 157 6.1 11.3 0.00 0.00 0.00 59 1010.6
20260505221041 74 202 7.0 11.3 0.00 0.00 0.00 59 1010.6
20260505220926 74 150 6.1 11.3 0.00 0.00 0.00 59 1010.6
20260505220814 74 196 5.2 11.3 0.00 0.00 0.00 60 1010.6
20260505220725 74 115 5.2 11.3 0.00 0.00 0.00 59 1010.6
20260505220612 74 150 7.0 11.3 0.00 0.00 0.00 59 1010.5
20260505220544 74 190 7.0 11.3 0.00 0.00 0.00 59 1010.5
20260505220318 74 207 6.1 11.3 0.00 0.00 0.00 59 1010.6
20260505220230 74 196 5.2 10.4 0.00 0.00 0.00 59 1010.6
20260505220117 74 186 6.1 10.4 0.00 0.00 0.00 59 1010.6
20260505220045 74 203 5.2 12.2 0.00 0.00 0.00 59 1010.6
20260505215910 74 148 4.3 12.2 0.00 0.00 0.00 59 1010.7
20260505215817 74 166 6.1 12.2 0.00 0.00 0.00 58 1010.7
20260505215725 74 188 7.0 12.2 0.00 0.00 0.00 58 1010.7
20260505215637 74 193 7.8 12.2 0.00 0.00 0.00 58 1010.7
20260505215522 74 192 7.8 12.2 0.00 0.00 0.00 58 1010.7
20260505215410 74 169 7.8 12.2 0.00 0.00 0.00 58 1010.8
20260505215338 74 196 7.8 12.2 0.00 0.00 0.00 58 1010.8
20260505215224 74 174 8.7 12.2 0.00 0.00 0.00 57 1010.8
20260505215111 74 198 7.8 13.0 0.00 0.00 0.00 58 1010.7
20260505215046 74 180 6.1 14.8 0.00 0.00 0.00 58 1010.7
20260505214820 74 223 6.1 14.8 0.00 0.00 0.00 58 1010.8
20260505214748 74 173 5.2 14.8 0.00 0.00 0.00 58 1010.7
20260505214614 74 192 4.3 14.8 0.00 0.00 0.00 57 1010.7
20260505214521 74 175 5.2 16.5 0.00 0.00 0.00 58 1010.7
20260505214432 74 169 7.8 16.5 0.00 0.00 0.00 57 1010.6
20260505214317 74 188 8.7 16.5 0.00 0.00 0.00 57 1010.7
20260505214224 74 180 9.6 16.5 0.00 0.00 0.00 57 1010.7
20260505214112 74 172 10.4 16.5 0.00 0.00 0.00 57 1010.5
20260505214020 74 173 9.6 16.5 0.00 0.00 0.00 57 1010.5
20260505213948 74 164 10.4 16.5 0.00 0.00 0.00 56 1010.5
20260505213817 74 169 9.6 16.5 0.00 0.00 0.00 56 1010.6
20260505213724 74 195 8.7 16.5 0.00 0.00 0.00 56 1010.6
20260505213652 74 182 7.8 15.6 0.00 0.00 0.00 57 1010.5
20260505213602 74 170 7.8 15.6 0.00 0.00 0.00 56 1010.6
20260505213315 74 175 7.8 19.1 0.00 0.00 0.00 56 1010.6
20260505213225 74 200 7.8 19.1 0.00 0.00 0.00 57 1010.6
20260505213113 74 211 8.7 19.1 0.00 0.00 0.00 56 1010.6
20260505213019 74 169 9.6 19.1 0.00 0.00 0.00 56 1010.6
20260505212925 74 190 10.4 19.1 0.00 0.00 0.00 56 1010.6
20260505212813 74 186 8.7 19.1 0.00 0.00 0.00 56 1010.7
20260505212721 74 205 9.6 19.1 0.00 0.00 0.00 56 1010.7
20260505212613 74 184 11.3 19.1 0.00 0.00 0.00 55 1010.7
20260505212521 74 201 11.3 19.1 0.00 0.00 0.00 55 1010.7
20260505212427 74 186 10.4 18.2 0.00 0.00 0.00 56 1010.8
20260505212315 74 196 10.4 16.5 0.00 0.00 0.00 55 1010.6
20260505212223 74 207 11.3 16.5 0.00 0.00 0.00 56 1010.6
20260505212114 74 171 10.4 18.2 0.00 0.00 0.00 56 1010.7
20260505212045 74 208 10.4 18.2 0.00 0.00 0.00 56 1010.7
20260505211840 75 205 7.8 18.2 0.00 0.00 0.00 56 1010.6
20260505211725 75 204 7.0 18.2 0.00 0.00 0.00 56 1010.6
20260505211612 75 167 7.8 18.2 0.00 0.00 0.00 56 1010.7
20260505211523 75 192 7.8 18.2 0.00 0.00 0.00 56 1010.7
20260505211411 75 194 11.3 18.2 0.00 0.00 0.00 55 1010.6
20260505211319 75 196 12.2 18.2 0.00 0.00 0.00 55 1010.6
20260505211226 75 183 11.3 17.4 0.00 0.00 0.00 56 1010.6
20260505211115 75 208 9.6 16.5 0.00 0.00 0.00 56 1010.6
20260505211027 75 183 8.7 16.5 0.00 0.00 0.00 56 1010.6
20260505210913 75 202 10.4 16.5 0.00 0.00 0.00 56 1010.6
20260505210820 75 202 10.4 16.5 0.00 0.00 0.00 56 1010.6
20260505210728 75 188 10.4 17.4 0.00 0.00 0.00 56 1010.6
20260505210616 74 182 8.7 17.4 0.00 0.00 0.00 57 1010.6
20260505210551 74 191 8.7 17.4 0.00 0.00 0.00 57 1010.6
20260505210326 74 159 7.8 17.4 0.00 0.00 0.00 56 1010.5
20260505210213 74 191 8.7 17.4 0.00 0.00 0.00 56 1010.5
20260505210120 74 197 9.6 17.4 0.00 0.00 0.00 55 1010.5
20260505210027 74 169 7.8 17.4 0.00 0.00 0.00 55 1010.6
20260505205919 74 174 7.0 14.8 0.00 0.00 0.00 57 1010.6
20260505205825 74 221 7.0 14.8 0.00 0.00 0.00 56 1010.6
20260505205713 74 195 7.0 14.8 0.00 0.00 0.00 56 1010.5
20260505205620 74 208 7.8 15.6 0.00 0.00 0.00 55 1010.5
20260505205527 74 183 9.6 15.6 0.00 0.00 0.00 55 1010.5
20260505205418 74 207 8.7 15.6 0.00 0.00 0.00 55 1010.5
20260505205346 74 173 7.8 15.6 0.00 0.00 0.00 55 1010.5
20260505205212 74 191 7.0 15.6 0.00 0.00 0.00 55 1010.4
20260505205119 74 185 7.8 15.6 0.00 0.00 0.00 55 1010.4
20260505205050 74 184 8.7 15.6 0.00 0.00 0.00 56 1010.4
20260505204829 73 192 8.7 15.6 0.00 0.00 0.00 56 1010.3
20260505204714 73 179 7.8 15.6 0.00 0.00 0.00 57 1010.2
20260505204623 73 173 8.7 15.6 0.00 0.00 0.00 57 1010.2
20260505204510 73 190 7.8 15.6 0.00 0.00 0.00 57 1010.2
20260505204416 73 176 7.0 15.6 0.00 0.00 0.00 57 1010.3
20260505204325 74 180 6.1 15.6 0.00 0.00 0.00 58 1010.3
20260505204218 74 182 6.1 15.6 0.00 0.00 0.00 57 1010.3
20260505204124 74 148 6.1 15.6 0.00 0.00 0.00 57 1010.3
20260505204012 74 121 5.2 15.6 0.00 0.00 0.00 57 1010.2
20260505203920 74 153 6.1 15.6 0.00 0.00 0.00 57 1010.2
20260505203827 74 134 8.7 15.6 0.00 0.00 0.00 57 1010.2
20260505203720 74 143 8.7 15.6 0.00 0.00 0.00 57 1010.3
20260505203627 74 132 7.8 15.6 0.00 0.00 0.00 59 1010.3
20260505203557 74 123 6.1 15.6 0.00 0.00 0.00 59 1010.2
20260505203311 74 189 7.8 15.6 0.00 0.00 0.00 57 1010.3
20260505203239 75 192 7.8 15.6 0.00 0.00 0.00 58 1010.3
20260505203129 75 195 8.7 15.6 0.00 0.00 0.00 57 1010.3
20260505203036 75 198 8.7 15.6 0.00 0.00 0.00 56 1010.4
20260505202921 75 197 7.0 15.6 0.00 0.00 0.00 56 1010.4
20260505202849 75 238 7.8 15.6 0.00 0.00 0.00 54 1010.3
20260505202735 75 145 7.8 15.6 0.00 0.00 0.00 53 1010.4
20260505202621 75 182 7.0 17.4 0.00 0.00 0.00 54 1010.4
20260505202528 75 154 7.8 17.4 0.00 0.00 0.00 53 1010.3
20260505202420 75 200 9.6 17.4 0.00 0.00 0.00 54 1010.4
20260505202347 75 142 9.6 17.4 0.00 0.00 0.00 53 1010.4
20260505202233 75 122 8.7 13.9 0.00 0.00 0.00 54 1010.4
20260505202140 75 155 8.7 13.0 0.00 0.00 0.00 54 1010.4
20260505202109 75 164 7.8 13.0 0.00 0.00 0.00 53 1010.3
20260505201823 74 209 7.0 13.0 0.00 0.00 0.00 53 1010.3
20260505201714 74 163 7.0 13.0 0.00 0.00 0.00 54 1010.5
20260505201642 74 190 6.1 13.0 0.00 0.00 0.00 53 1010.5
20260505201527 74 138 6.1 13.0 0.00 0.00 0.00 53 1010.5
20260505201434 74 179 7.0 13.0 0.00 0.00 0.00 53 1010.5
20260505201321 74 122 7.0 13.0 0.00 0.00 0.00 54 1010.5
20260505201248 74 145 7.8 13.0 0.00 0.00 0.00 53 1010.5
20260505201120 74 180 7.8 13.0 0.00 0.00 0.00 53 1010.5
20260505201028 74 158 7.8 13.0 0.00 0.00 0.00 54 1010.5
20260505200915 74 148 7.0 10.4 0.00 0.00 0.00 54 1010.5
20260505200822 74 162 6.1 12.2 0.00 0.00 0.00 54 1010.5
20260505200728 74 158 6.1 12.2 0.00 0.00 0.00 54 1010.5
20260505200636 74 176 6.1 12.2 0.00 0.00 0.00 54 1010.5
20260505200549 74 170 6.1 12.2 0.00 0.00 0.00 54 1010.8
20260505200323 74 136 5.2 12.2 0.00 0.00 0.00 55 1010.5
20260505200211 73 182 5.2 12.2 0.00 0.00 0.00 55 1010.5
20260505200117 73 150 5.2 12.2 0.00 0.00 0.00 54 1010.5
20260505200044 73 202 6.1 12.2 0.00 0.00 0.00 54 1010.5
20260505195915 73 153 6.1 12.2 0.00 0.00 0.00 55 1010.6
20260505195822 73 146 5.2 8.7 0.00 0.00 0.00 54 1010.6
20260505195729 73 171 6.1 12.2 0.00 0.00 0.00 54 1010.8
20260505195617 73 147 6.1 12.2 0.00 0.00 0.00 54 1010.8
20260505195544 74 168 7.0 12.2 0.00 0.00 0.00 54 1010.8
20260505195410 73 146 5.2 12.2 0.00 0.00 0.00 54 1010.8
20260505195339 74 169 5.2 12.2 0.00 0.00 0.00 54 1010.7
20260505195228 74 76 7.0 12.2 0.00 0.00 0.00 54 1010.7
20260505195116 74 161 7.8 12.2 0.00 0.00 0.00 53 1010.7
20260505195046 74 171 7.0 12.2 0.00 0.00 0.00 53 1010.7
20260505194819 74 185 5.2 8.7 0.00 0.00 0.00 53 1010.7
20260505194710 74 113 7.0 8.7 0.00 0.00 0.00 54 1010.7
20260505194637 74 156 6.1 8.7 0.00 0.00 0.00 53 1010.7
20260505194543 74 166 5.2 10.4 0.00 0.00 0.00 54 1010.7
20260505194429 74 146 5.2 12.2 0.00 0.00 0.00 53 1010.6
20260505194318 74 170 5.2 12.2 0.00 0.00 0.00 53 1010.7
20260505194226 74 159 5.2 12.2 0.00 0.00 0.00 53 1010.7
20260505194132 74 157 5.2 12.2 0.00 0.00 0.00 53 1010.6
20260505194023 74 148 5.2 13.0 0.00 0.00 0.00 53 1010.6
20260505193911 74 140 5.2 13.0 0.00 0.00 0.00 53 1010.5
20260505193839 74 156 5.2 13.0 0.00 0.00 0.00 53 1010.5
20260505193724 74 192 7.0 13.0 0.00 0.00 0.00 52 1010.5
20260505193612 74 180 6.1 13.0 0.00 0.00 0.00 53 1010.5
20260505193547 74 141 6.1 13.0 0.00 0.00 0.00 52 1010.5
20260505193320 74 161 7.8 13.0 0.00 0.00 0.00 52 1010.6
20260505193228 74 163 8.7 13.0 0.00 0.00 0.00 52 1010.6
20260505193115 74 132 7.0 12.2 0.00 0.00 0.00 53 1010.7
20260505193022 74 198 7.0 12.2 0.00 0.00 0.00 53 1010.7
20260505192915 74 159 6.1 12.2 0.00 0.00 0.00 54 1010.8
20260505192822 74 162 5.2 12.2 0.00 0.00 0.00 53 1010.8
20260505192729 74 190 4.3 12.2 0.00 0.00 0.00 53 1010.8
20260505192617 74 90 5.2 12.2 0.00 0.00 0.00 52 1010.8
20260505192524 74 194 6.1 12.2 0.00 0.00 0.00 52 1010.8
20260505192416 74 163 6.1 13.0 0.00 0.00 0.00 51 1010.8
20260505192323 74 158 5.2 13.9 0.00 0.00 0.00 53 1010.8
20260505192231 74 131 5.2 13.9 0.00 0.00 0.00 51 1010.7
20260505192137 74 158 6.1 13.9 0.00 0.00 0.00 51 1010.7
20260505192046 74 184 5.2 13.9 0.00 0.00 0.00 51 1010.7
20260505191821 75 144 4.3 13.9 0.00 0.00 0.00 49 1011.0
20260505191713 75 153 7.0 13.9 0.00 0.00 0.00 48 1011.3
20260505191620 75 158 8.7 13.9 0.00 0.00 0.00 48 1011.3
20260505191529 75 196 9.6 13.9 0.00 0.00 0.00 48 1011.3
20260505191417 75 199 7.0 13.9 0.00 0.00 0.00 47 1011.6
20260505191325 75 180 5.2 11.3 0.00 0.00 0.00 48 1011.6
20260505191216 75 195 7.0 11.3 0.00 0.00 0.00 48 1011.8
20260505191123 75 182 7.0 11.3 0.00 0.00 0.00 47 1011.8
20260505191010 75 188 7.8 11.3 0.00 0.00 0.00 47 1011.9
20260505190919 75 165 7.0 11.3 0.00 0.00 0.00 47 1012.0
20260505190825 75 197 6.1 13.0 0.00 0.00 0.00 47 1012.0
20260505190718 75 217 7.0 13.0 0.00 0.00 0.00 46 1012.1
20260505190645 75 180 7.0 13.0 0.00 0.00 0.00 46 1012.1
20260505190615 76 175 7.0 13.0 0.00 0.00 0.00 47 1012.1
20260505190328 76 186 3.5 13.0 0.00 0.00 0.00 47 1012.2
20260505190213 76 144 4.3 13.0 0.00 0.00 0.00 46 1012.4
20260505190125 76 184 7.0 14.8 0.00 0.00 0.00 46 1012.4
20260505190013 76 193 7.8 14.8 0.00 0.00 0.00 46 1012.4
20260505185921 76 191 7.0 14.8 0.00 0.00 0.00 47 1012.4
20260505185829 76 219 6.1 14.8 0.00 0.00 0.00 47 1012.4
20260505185715 76 260 4.3 14.8 0.00 0.00 0.00 46 1012.4
20260505185624 76 188 5.2 14.8 0.00 0.00 0.00 47 1012.4
20260505185514 76 144 7.0 14.8 0.00 0.00 0.00 45 1012.4
20260505185422 76 207 7.8 14.8 0.00 0.00 0.00 45 1012.4
20260505185329 76 192 7.8 17.4 0.00 0.00 0.00 46 1012.5
20260505185216 76 187 6.1 17.4 0.00 0.00 0.00 46 1012.5
20260505185123 76 203 6.1 17.4 0.00 0.00 0.00 46 1012.5
20260505185058 76 186 6.1 17.4 0.00 0.00 0.00 46 1012.5
20260505184811 76 247 5.2 17.4 0.00 0.00 0.00 46 1012.5
20260505184719 76 190 7.0 17.4 0.00 0.00 0.00 44 1012.5
20260505184626 76 221 8.7 17.4 0.00 0.00 0.00 44 1012.5
20260505184518 77 201 10.4 17.4 0.00 0.00 0.00 44 1012.5
20260505184426 77 229 9.6 17.4 0.00 0.00 0.00 44 1012.5
20260505184315 77 184 7.0 12.2 0.00 0.00 0.00 44 1012.5
20260505184223 77 196 6.1 14.8 0.00 0.00 0.00 43 1012.5
20260505184110 77 227 6.1 14.8 0.00 0.00 0.00 43 1012.5
20260505184017 77 179 7.8 14.8 0.00 0.00 0.00 42 1012.5
20260505183928 77 162 8.7 14.8 0.00 0.00 0.00 43 1012.5
20260505183835 77 196 7.0 14.8 0.00 0.00 0.00 43 1012.6
20260505183721 77 167 6.1 14.8 0.00 0.00 0.00 45 1012.6
20260505183610 77 180 8.7 14.8 0.00 0.00 0.00 43 1012.6
20260505183544 77 182 8.7 14.8 0.00 0.00 0.00 43 1012.6
20260505183319 77 180 8.7 14.8 0.00 0.00 0.00 42 1012.5
20260505183226 77 197 7.8 13.9 0.00 0.00 0.00 43 1012.5
20260505183114 77 180 8.7 13.9 0.00 0.00 0.00 44 1012.5
20260505183021 77 200 8.7 13.9 0.00 0.00 0.00 44 1012.5
20260505182930 77 241 8.7 15.6 0.00 0.00 0.00 45 1012.4
20260505182821 77 184 8.7 13.9 0.00 0.00 0.00 44 1012.5
20260505182728 77 169 7.8 13.0 0.00 0.00 0.00 44 1012.5
20260505182616 77 215 7.0 18.2 0.00 0.00 0.00 44 1012.4
20260505182523 77 225 5.2 18.2 0.00 0.00 0.00 45 1012.4
20260505182410 77 216 5.2 19.1 0.00 0.00 0.00 45 1012.6
20260505182321 77 195 7.0 19.1 0.00 0.00 0.00 45 1012.6
20260505182229 77 214 7.8 19.1 0.00 0.00 0.00 44 1012.5
20260505182136 77 199 9.6 19.1 0.00 0.00 0.00 44 1012.6
20260505182106 77 198 9.6 19.1 0.00 0.00 0.00 43 1012.6
20260505181818 77 186 9.6 19.1 0.00 0.00 0.00 42 1012.7
20260505181710 77 200 9.6 19.1 0.00 0.00 0.00 41 1012.7
20260505181616 77 150 10.4 19.1 0.00 0.00 0.00 43 1012.7
20260505181524 77 161 8.7 19.1 0.00 0.00 0.00 42 1012.7
20260505181412 77 184 6.1 16.5 0.00 0.00 0.00 43 1012.6
20260505181318 77 110 5.2 16.5 0.00 0.00 0.00 41 1012.7
20260505181246 77 163 7.0 16.5 0.00 0.00 0.00 41 1012.7
20260505181136 77 190 9.6 16.5 0.00 0.00 0.00 42 1012.8
20260505181022 77 184 12.2 16.5 0.00 0.00 0.00 41 1012.8
20260505180910 77 184 9.6 16.5 0.00 0.00 0.00 41 1012.8
20260505180816 77 199 7.8 16.5 0.00 0.00 0.00 43 1012.8
20260505180745 77 209 8.7 16.5 0.00 0.00 0.00 42 1012.8
20260505180631 77 201 9.6 16.5 0.00 0.00 0.00 43 1012.8
20260505180544 77 187 8.7 17.4 0.00 0.00 0.00 43 1012.8
20260505180318 77 187 8.7 13.9 0.00 0.00 0.00 42 1012.8
20260505180247 77 217 8.7 13.9 0.00 0.00 0.00 43 1012.8
20260505180114 77 201 7.8 15.6 0.00 0.00 0.00 43 1012.8
20260505180020 77 223 6.1 15.6 0.00 0.00 0.00 43 1012.8
20260505175912 77 186 7.0 15.6 0.00 0.00 0.00 43 1012.7
20260505175821 77 202 7.0 15.6 0.00 0.00 0.00 44 1012.7
20260505175729 77 213 8.7 15.6 0.00 0.00 0.00 44 1012.7
20260505175615 76 264 7.8 15.6 0.00 0.00 0.00 43 1012.5
20260505175523 76 221 7.0 15.6 0.00 0.00 0.00 45 1012.5
20260505175430 76 200 7.8 15.6 0.00 0.00 0.00 44 1012.6
20260505175321 76 182 9.6 15.6 0.00 0.00 0.00 42 1012.6
20260505175228 76 209 8.7 15.6 0.00 0.00 0.00 43 1012.7
20260505175116 76 173 8.7 15.6 0.00 0.00 0.00 45 1012.5
20260505175046 76 132 9.6 15.6 0.00 0.00 0.00 44 1012.5
20260505174824 76 188 9.6 15.6 0.00 0.00 0.00 44 1012.6
20260505174710 76 157 8.7 16.5 0.00 0.00 0.00 45 1012.6
20260505174618 76 219 8.7 16.5 0.00 0.00 0.00 43 1012.6
20260505174545 76 223 7.8 16.5 0.00 0.00 0.00 44 1012.6
20260505174412 76 258 6.1 16.5 0.00 0.00 0.00 46 1012.5
20260505174319 76 200 5.2 16.5 0.00 0.00 0.00 46 1012.6
20260505174230 76 214 4.3 16.5 0.00 0.00 0.00 46 1012.6
20260505174117 76 238 5.2 16.5 0.00 0.00 0.00 48 1012.7
20260505174026 76 181 7.0 16.5 0.00 0.00 0.00 47 1012.7
20260505173912 76 211 8.7 17.4 0.00 0.00 0.00 46 1012.7
20260505173820 76 180 8.7 17.4 0.00 0.00 0.00 47 1012.7
20260505173746 76 194 9.6 17.4 0.00 0.00 0.00 46 1012.7
20260505173637 76 177 7.8 17.4 0.00 0.00 0.00 49 1012.7
20260505173607 76 145 7.0 10.4 0.00 0.00 0.00 46 1012.7
20260505173320 76 240 7.0 10.4 0.00 0.00 0.00 46 1012.7
20260505173228 76 214 7.8 12.2 0.00 0.00 0.00 46 1012.8
20260505173115 76 186 7.8 13.9 0.00 0.00 0.00 46 1012.8
20260505173026 76 197 7.0 13.9 0.00 0.00 0.00 46 1012.8
20260505172913 76 187 6.1 13.9 0.00 0.00 0.00 45 1012.8
20260505172822 76 205 7.0 13.9 0.00 0.00 0.00 46 1012.8
20260505172749 76 267 7.0 13.9 0.00 0.00 0.00 46 1012.8
20260505172615 76 267 6.1 13.9 0.00 0.00 0.00 45 1012.8
20260505172523 76 165 7.8 17.4 0.00 0.00 0.00 45 1012.8
20260505172434 76 175 9.6 17.4 0.00 0.00 0.00 44 1012.8
20260505172321 76 211 9.6 17.4 0.00 0.00 0.00 45 1012.8
20260505172227 76 206 7.8 17.4 0.00 0.00 0.00 45 1012.9
20260505172115 76 247 7.0 17.4 0.00 0.00 0.00 44 1012.8
20260505172051 76 211 7.0 17.4 0.00 0.00 0.00 43 1012.8
20260505171844 76 246 7.8 17.4 0.00 0.00 0.00 43 1012.9
20260505171710 76 199 7.8 17.4 0.00 0.00 0.00 44 1013.0
20260505171617 76 186 7.8 12.2 0.00 0.00 0.00 44 1013.0
20260505171526 76 206 8.7 12.2 0.00 0.00 0.00 44 1013.0
20260505171413 77 276 7.0 13.0 0.00 0.00 0.00 46 1013.0
20260505171325 77 228 5.2 12.2 0.00 0.00 0.00 46 1013.0
20260505171232 77 204 7.0 12.2 0.00 0.00 0.00 46 1013.0
20260505171120 77 329 7.0 12.2 0.00 0.00 0.00 48 1013.0
20260505171028 77 184 5.2 12.2 0.00 0.00 0.00 50 1013.1
20260505170915 76 142 6.1 12.2 0.00 0.00 0.00 48 1013.0
20260505170843 76 196 7.8 12.2 0.00 0.00 0.00 48 1013.0
20260505170714 76 249 9.6 14.8 0.00 0.00 0.00 50 1013.1
20260505170621 76 179 7.8 13.9 0.00 0.00 0.00 48 1013.1
20260505170551 76 121 6.1 13.9 0.00 0.00 0.00 48 1013.0
20260505170324 76 195 5.2 12.2 0.00 0.00 0.00 48 1013.2
20260505170210 76 151 6.1 12.2 0.00 0.00 0.00 51 1013.3
20260505170122 76 197 6.1 12.2 0.00 0.00 0.00 49 1013.3
20260505170029 76 208 5.2 12.2 0.00 0.00 0.00 49 1013.3
20260505165936 76 113 7.0 12.2 0.00 0.00 0.00 48 1013.3
20260505165821 76 188 7.8 12.2 0.00 0.00 0.00 48 1013.3
20260505165747 76 214 7.8 14.8 0.00 0.00 0.00 50 1013.3
20260505165614 76 175 7.0 14.8 0.00 0.00 0.00 49 1013.2
20260505165541 76 152 6.1 14.8 0.00 0.00 0.00 49 1013.2
20260505165412 76 163 7.0 14.8 0.00 0.00 0.00 50 1013.2
20260505165318 76 155 7.0 14.8 0.00 0.00 0.00 49 1013.2
20260505165225 76 132 7.8 14.8 0.00 0.00 0.00 49 1013.2
20260505165112 76 165 7.0 14.8 0.00 0.00 0.00 50 1013.2
20260505165049 76 149 7.0 14.8 0.00 0.00 0.00 50 1013.2
20260505164823 75 142 7.0 14.8 0.00 0.00 0.00 50 1013.4
20260505164729 75 172 7.0 12.2 0.00 0.00 0.00 50 1013.4
20260505164617 75 188 8.7 12.2 0.00 0.00 0.00 50 1013.4
20260505164523 75 215 8.7 12.2 0.00 0.00 0.00 50 1013.4
20260505164410 75 189 7.8 12.2 0.00 0.00 0.00 51 1013.5
20260505164321 75 190 7.0 12.2 0.00 0.00 0.00 50 1013.5
20260505164229 75 188 6.1 12.2 0.00 0.00 0.00 51 1013.4
20260505164116 75 140 7.0 12.2 0.00 0.00 0.00 51 1013.3
20260505164025 75 173 7.8 11.3 0.00 0.00 0.00 51 1013.3
20260505163912 75 158 7.0 14.8 0.00 0.00 0.00 52 1013.3
20260505163823 75 157 7.0 14.8 0.00 0.00 0.00 54 1013.3
20260505163711 75 194 6.1 14.8 0.00 0.00 0.00 56 1013.2
20260505163618 74 161 6.1 14.8 0.00 0.00 0.00 57 1013.2
20260505163548 74 153 7.0 14.8 0.00 0.00 0.00 54 1013.2
20260505163322 74 200 7.0 14.8 0.00 0.00 0.00 54 1013.4
20260505163213 74 223 7.0 14.8 0.00 0.00 0.00 54 1013.3
20260505163121 74 196 8.7 14.8 0.00 0.00 0.00 55 1013.3
20260505163048 74 171 7.8 13.9 0.00 0.00 0.00 54 1013.3
20260505162915 74 188 5.2 12.2 0.00 0.00 0.00 55 1013.4
20260505162822 74 232 5.2 11.3 0.00 0.00 0.00 54 1013.4
20260505162715 74 187 5.2 11.3 0.00 0.00 0.00 55 1013.5
20260505162624 74 217 4.3 11.3 0.00 0.00 0.00 56 1013.5
20260505162511 74 182 6.1 11.3 0.00 0.00 0.00 55 1013.4
20260505162420 74 199 7.0 11.3 0.00 0.00 0.00 56 1013.4
20260505162328 74 213 7.0 11.3 0.00 0.00 0.00 54 1013.4
20260505162235 74 159 7.0 12.2 0.00 0.00 0.00 55 1013.3
20260505162126 74 234 7.0 12.2 0.00 0.00 0.00 54 1013.3
20260505162056 74 209 7.0 13.9 0.00 0.00 0.00 55 1013.4
20260505161851 74 163 6.1 13.9 0.00 0.00 0.00 55 1013.4
20260505161716 74 234 7.0 13.9 0.00 0.00 0.00 56 1013.5
20260505161624 74 194 7.0 13.9 0.00 0.00 0.00 55 1013.5
20260505161515 74 223 6.1 13.9 0.00 0.00 0.00 54 1013.4
20260505161443 74 203 7.8 13.9 0.00 0.00 0.00 54 1013.4
20260505161310 74 174 7.8 13.9 0.00 0.00 0.00 54 1013.4
20260505161217 74 200 6.1 13.9 0.00 0.00 0.00 56 1013.4
20260505161124 74 204 5.2 12.2 0.00 0.00 0.00 56 1013.4
20260505161031 74 200 7.0 13.9 0.00 0.00 0.00 55 1013.2
20260505160923 74 205 7.0 13.9 0.00 0.00 0.00 55 1013.2
20260505160810 74 198 7.0 13.9 0.00 0.00 0.00 55 1013.3
20260505160737 74 225 7.0 13.9 0.00 0.00 0.00 55 1013.2
20260505160623 74 206 6.1 13.9 0.00 0.00 0.00 55 1013.2
20260505160551 74 251 6.1 13.9 0.00 0.00 0.00 55 1013.2
20260505160345 74 221 7.8 13.9 0.00 0.00 0.00 54 1013.2
20260505160235 74 197 7.8 13.9 0.00 0.00 0.00 54 1013.3
20260505160122 74 180 7.0 14.8 0.00 0.00 0.00 54 1013.3
20260505153321 72 184 6.1 11.3 0.00 0.00 0.00 56 1013.4
20260505153211 72 171 5.2 10.4 0.00 0.00 0.00 55 1013.3
20260505153119 72 186 5.2 10.4 0.00 0.00 0.00 55 1013.2
20260505153025 72 198 6.1 10.4 0.00 0.00 0.00 55 1013.2
20260505152914 72 259 6.1 10.4 0.00 0.00 0.00 55 1013.2
20260505152822 72 195 5.2 9.6 0.00 0.00 0.00 55 1013.2
20260505152712 72 287 4.3 9.6 0.00 0.00 0.00 60 1013.2
20260505152620 72 204 4.3 9.6 0.00 0.00 0.00 59 1013.2
20260505152527 72 175 4.3 9.6 0.00 0.00 0.00 58 1013.2
20260505152414 72 196 5.2 9.6 0.00 0.00 0.00 58 1013.2
20260505152323 72 175 5.2 9.6 0.00 0.00 0.00 57 1013.2
20260505152230 72 188 5.2 9.6 0.00 0.00 0.00 56 1013.2
20260505152157 72 189 6.1 9.6 0.00 0.00 0.00 56 1013.3
20260505152111 72 184 6.1 10.4 0.00 0.00 0.00 59 1013.1
20260505151823 72 191 6.1 9.6 0.00 0.00 0.00 58 1013.2
20260505151712 72 167 5.2 8.7 0.00 0.00 0.00 58 1013.2
20260505151638 72 182 5.2 8.7 0.00 0.00 0.00 59 1013.3
20260505151524 72 183 4.3 10.4 0.00 0.00 0.00 59 1013.3
20260505151415 72 238 4.3 10.4 0.00 0.00 0.00 60 1013.3
20260505151323 72 178 5.2 10.4 0.00 0.00 0.00 60 1013.3
20260505151250 72 199 5.2 9.6 0.00 0.00 0.00 61 1013.3
20260505151117 71 178 5.2 9.6 0.00 0.00 0.00 60 1013.3
20260505151023 71 192 4.3 9.6 0.00 0.00 0.00 62 1013.3
20260505150931 71 208 5.2 9.6 0.00 0.00 0.00 62 1013.2
20260505150820 71 112 7.0 9.6 0.00 0.00 0.00 62 1013.2
20260505150748 71 138 7.0 9.6 0.00 0.00 0.00 62 1013.2
20260505150614 71 123 7.0 10.4 0.00 0.00 0.00 62 1013.2
20260505150544 71 117 6.1 9.6 0.00 0.00 0.00 63 1013.2
20260505150315 71 221 3.5 9.6 0.00 0.00 0.00 65 1013.4
20260505150248 71 155 3.5 9.6 0.00 0.00 0.00 64 1013.4
20260505150134 71 178 3.5 9.6 0.00 0.00 0.00 63 1013.5
20260505140625 66 214 5.2 10.4 0.00 0.00 0.00 71 1013.4
20260505140601 66 180 5.2 10.4 0.00 0.00 0.00 70 1013.5
20260505140335 66 156 7.0 10.4 0.00 0.00 0.00 70 1013.5
20260505140221 66 177 7.0 10.4 0.00 0.00 0.00 70 1013.5
20260505140128 66 213 6.1 11.3 0.00 0.00 0.00 70 1013.5
20260505130223 64 138 5.2 8.7 0.00 0.00 0.00 72 1013.5
20260505130111 63 202 4.3 9.6 0.00 0.00 0.00 73 1013.4
20260505124816 63 189 5.2 7.8 0.00 0.00 0.00 72 1013.1
20260505124744 63 188 5.2 7.8 0.00 0.00 0.00 73 1013.1
20260505124610 63 178 5.2 7.8 0.00 0.00 0.00 72 1013.0
20260505124515 63 173 4.3 8.7 0.00 0.00 0.00 73 1013.0
20260505124441 63 167 4.3 7.0 0.00 0.00 0.00 73 1013.0
20260505124327 63 174 3.5 7.0 0.00 0.00 0.00 72 1013.1
20260505124214 63 143 3.5 7.0 0.00 0.00 0.00 73 1013.1
20260505124127 63 146 3.5 7.0 0.00 0.00 0.00 73 1013.1
20260505124013 63 134 2.6 7.0 0.00 0.00 0.00 73 1013.1
20260505123919 63 169 2.6 7.0 0.00 0.00 0.00 73 1013.1
20260505123827 62 156 3.5 7.0 0.00 0.00 0.00 73 1013.1
20260505123715 62 152 3.5 7.0 0.00 0.00 0.00 73 1013.1
20260505123623 62 138 2.6 7.0 0.00 0.00 0.00 73 1013.1
20260505123558 62 173 2.6 6.1 0.00 0.00 0.00 74 1013.2
20260505123311 62 200 3.5 6.1 0.00 0.00 0.00 74 1013.1
20260505123238 62 191 3.5 6.1 0.00 0.00 0.00 74 1013.1
20260505123125 62 182 4.3 7.8 0.00 0.00 0.00 74 1013.1
20260505123017 62 155 4.3 7.8 0.00 0.00 0.00 75 1013.1
20260505122925 62 117 3.5 7.8 0.00 0.00 0.00 74 1013.1
20260505122811 62 168 1.7 7.8 0.00 0.00 0.00 75 1013.0
20260505122739 61 190 2.6 7.8 0.00 0.00 0.00 75 1013.1
20260505122624 61 144 2.6 7.8 0.00 0.00 0.00 75 1013.1
20260505122510 61 175 3.5 7.8 0.00 0.00 0.00 76 1013.1
20260505122420 61 149 4.3 7.8 0.00 0.00 0.00 75 1013.1
20260505122328 61 134 3.5 7.8 0.00 0.00 0.00 75 1013.1
20260505122235 61 149 2.6 6.1 0.00 0.00 0.00 75 1013.1
20260505122122 61 157 2.6 6.1 0.00 0.00 0.00 75 1013.1
20260505122053 61 147 2.6 6.1 0.00 0.00 0.00 76 1013.1
20260505121810 60 148 2.6 6.1 0.00 0.00 0.00 76 1013.0
20260505121717 60 190 2.6 6.1 0.00 0.00 0.00 76 1013.1
20260505121625 60 150 3.5 6.1 0.00 0.00 0.00 76 1013.1
20260505121512 60 186 3.5 5.2 0.00 0.00 0.00 77 1013.1
20260505121439 60 153 3.5 5.2 0.00 0.00 0.00 77 1013.1
20260505121325 60 159 2.6 5.2 0.00 0.00 0.00 77 1013.1
20260505121217 60 156 2.6 5.2 0.00 0.00 0.00 77 1013.1
20260505121124 60 163 2.6 5.2 0.00 0.00 0.00 77 1013.1
20260505121011 59 192 2.6 3.5 0.00 0.00 0.00 78 1013.0
20260505120919 59 170 2.6 4.3 0.00 0.00 0.00 78 1012.9
20260505120825 59 157 2.6 4.3 0.00 0.00 0.00 78 1012.9
20260505120718 59 142 1.7 4.3 0.00 0.00 0.00 78 1013.0
20260505120646 59 117 0.9 4.3 0.00 0.00 0.00 78 1013.0
20260505120616 59 156 1.7 4.3 0.00 0.00 0.00 77 1013.0
20260505120310 59 189 2.6 4.3 0.00 0.00 0.00 77 1013.1
20260505120218 59 182 2.6 4.3 0.00 0.00 0.00 77 1013.1
20260505120129 59 207 2.6 4.3 0.00 0.00 0.00 77 1013.1
20260505120036 59 198 2.6 4.3 0.00 0.00 0.00 77 1013.1
20260505115923 59 171 2.6 4.3 0.00 0.00 0.00 77 1013.1
20260505115810 59 182 1.7 2.6 0.00 0.00 0.00 77 1013.1
20260505115717 59 178 1.7 2.6 0.00 0.00 0.00 77 1013.0
20260505115624 59 178 1.7 2.6 0.00 0.00 0.00 77 1013.0
20260505115535 59 154 0.9 2.6 0.00 0.00 0.00 77 1013.0
20260505115422 59 184 0.9 2.6 0.00 0.00 0.00 77 1013.0
20260505115310 59 168 0.9 4.3 0.00 0.00 0.00 77 1013.0
20260505115217 59 169 1.7 4.3 0.00 0.00 0.00 77 1012.9
20260505115125 59 170 1.7 4.3 0.00 0.00 0.00 77 1012.9
20260505115100 59 173 1.7 4.3 0.00 0.00 0.00 77 1012.8
20260505114814 59 152 0.9 4.3 0.00 0.00 0.00 77 1012.8
20260505114721 59 147 0.9 4.3 0.00 0.00 0.00 77 1012.8
20260505114648 59 170 1.7 4.3 0.00 0.00 0.00 77 1012.8
20260505114534 59 178 2.6 4.3 0.00 0.00 0.00 77 1012.7
20260505114419 59 151 2.6 4.3 0.00 0.00 0.00 77 1012.7
20260505114310 59 146 1.7 4.3 0.00 0.00 0.00 77 1012.6
20260505114217 59 156 1.7 4.3 0.00 0.00 0.00 77 1012.7
20260505114125 59 182 2.6 4.3 0.00 0.00 0.00 77 1012.7
20260505114013 59 148 2.6 4.3 0.00 0.00 0.00 77 1012.6
20260505113920 59 144 1.7 4.3 0.00 0.00 0.00 77 1012.6
20260505113827 59 149 1.7 4.3 0.00 0.00 0.00 77 1012.5
20260505113758 59 143 1.7 4.3 0.00 0.00 0.00 77 1012.5
20260505113705 59 145 1.7 4.3 0.00 0.00 0.00 77 1012.4
20260505113615 59 152 1.7 4.3 0.00 0.00 0.00 77 1012.4
20260505113325 59 150 2.6 4.3 0.00 0.00 0.00 78 1012.3
20260505113233 59 142 3.5 4.3 0.00 0.00 0.00 77 1012.3
20260505113120 59 148 2.6 3.5 0.00 0.00 0.00 78 1012.3
20260505113012 59 144 1.7 3.5 0.00 0.00 0.00 78 1012.2
20260505112920 59 132 1.7 3.5 0.00 0.00 0.00 78 1012.2
20260505112828 59 135 1.7 3.5 0.00 0.00 0.00 78 1012.2
20260505112736 59 143 2.6 4.3 0.00 0.00 0.00 77 1012.2
20260505112622 59 144 2.6 4.3 0.00 0.00 0.00 77 1012.2
20260505112511 59 142 2.6 3.5 0.00 0.00 0.00 77 1012.2
20260505112423 59 135 1.7 3.5 0.00 0.00 0.00 77 1012.2
20260505112311 59 138 1.7 3.5 0.00 0.00 0.00 77 1012.1
20260505112238 58 138 1.7 3.5 0.00 0.00 0.00 77 1012.1
20260505112146 59 138 1.7 3.5 0.00 0.00 0.00 77 1012.1
20260505112054 59 137 1.7 3.5 0.00 0.00 0.00 77 1012.1
20260505111812 58 130 1.7 2.6 0.00 0.00 0.00 77 1012.1
20260505111719 58 134 1.7 2.6 0.00 0.00 0.00 77 1012.2
20260505111626 58 128 1.7 2.6 0.00 0.00 0.00 77 1012.2
20260505111513 58 151 1.7 3.5 0.00 0.00 0.00 77 1012.2
20260505111421 58 151 1.7 3.5 0.00 0.00 0.00 77 1012.2
20260505111349 58 150 1.7 3.5 0.00 0.00 0.00 77 1012.3
20260505111239 58 144 1.7 3.5 0.00 0.00 0.00 77 1012.2
20260505111126 58 143 1.7 3.5 0.00 0.00 0.00 77 1012.2
20260505111012 58 153 1.7 3.5 0.00 0.00 0.00 77 1012.2
20260505110919 58 148 1.7 3.5 0.00 0.00 0.00 77 1012.2
20260505110826 58 145 1.7 3.5 0.00 0.00 0.00 77 1012.2
20260505110714 58 143 1.7 3.5 0.00 0.00 0.00 77 1012.1
20260505110645 58 111 1.7 3.5 0.00 0.00 0.00 77 1012.1
20260505110555 58 142 1.7 3.5 0.00 0.00 0.00 77 1012.1
20260505110348 58 146 0.9 2.6 0.00 0.00 0.00 77 1012.0
20260505110215 58 146 0.9 2.6 0.00 0.00 0.00 77 1012.0
20260505110122 58 146 0.9 2.6 0.00 0.00 0.00 77 1012.0
20260505102215 59 174 3.5 5.2 0.00 0.00 0.00 75 1011.6
20260505102121 59 173 3.5 5.2 0.00 0.00 0.00 75 1011.6
20260505102055 59 177 2.6 5.2 0.00 0.00 0.00 75 1011.8
20260505101809 59 202 2.6 5.2 0.00 0.00 0.00 74 1011.7
20260505101717 59 180 2.6 5.2 0.00 0.00 0.00 74 1011.6
20260505101643 59 186 2.6 5.2 0.00 0.00 0.00 74 1011.6
20260505101529 59 197 2.6 5.2 0.00 0.00 0.00 74 1011.5
20260505101437 59 170 3.5 5.2 0.00 0.00 0.00 74 1011.6
20260505101326 59 178 3.5 5.2 0.00 0.00 0.00 74 1011.6
20260505101215 59 216 2.6 4.3 0.00 0.00 0.00 74 1011.5
20260505101122 59 159 3.5 4.3 0.00 0.00 0.00 74 1011.5
20260505101010 59 180 3.5 4.3 0.00 0.00 0.00 74 1011.4
20260505100918 59 169 3.5 5.2 0.00 0.00 0.00 74 1011.4
20260505100824 59 182 2.6 5.2 0.00 0.00 0.00 74 1011.4
20260505100715 59 184 2.6 5.2 0.00 0.00 0.00 74 1011.4
20260505100624 59 171 1.7 5.2 0.00 0.00 0.00 74 1011.4
20260505100555 59 167 1.7 5.2 0.00 0.00 0.00 74 1011.4
20260505100328 59 210 2.6 5.2 0.00 0.00 0.00 74 1011.4
20260505100220 59 202 3.5 5.2 0.00 0.00 0.00 74 1011.5
20260505100128 59 180 3.5 5.2 0.00 0.00 0.00 74 1011.4
20260505100016 59 182 2.6 5.2 0.00 0.00 0.00 73 1011.5
20260505095924 59 171 2.6 5.2 0.00 0.00 0.00 73 1011.5
20260505095813 59 173 3.5 5.2 0.00 0.00 0.00 73 1011.6
20260505095724 59 194 2.6 5.2 0.00 0.00 0.00 73 1011.6
20260505095611 59 195 1.7 3.5 0.00 0.00 0.00 73 1011.5
20260505095518 59 189 1.7 3.5 0.00 0.00 0.00 73 1011.5
20260505095427 59 186 1.7 3.5 0.00 0.00 0.00 73 1011.5
20260505095313 59 201 1.7 3.5 0.00 0.00 0.00 73 1011.4
20260505095241 59 188 1.7 3.5 0.00 0.00 0.00 73 1011.4
20260505095131 59 198 1.7 3.5 0.00 0.00 0.00 73 1011.4
20260505095101 59 142 1.7 3.5 0.00 0.00 0.00 73 1011.4
20260505094815 59 200 0.9 3.5 0.00 0.00 0.00 73 1011.4
20260505094722 59 169 1.7 4.3 0.00 0.00 0.00 73 1011.4
20260505094631 59 184 1.7 4.3 0.00 0.00 0.00 73 1011.4
20260505094541 60 145 1.7 4.3 0.00 0.00 0.00 73 1011.4
20260505094426 59 161 0.9 4.3 0.00 0.00 0.00 73 1011.3
20260505094314 60 179 0.9 4.3 0.00 0.00 0.00 72 1011.3
20260505094222 60 173 0.9 4.3 0.00 0.00 0.00 72 1011.3
20260505094110 60 169 1.7 4.3 0.00 0.00 0.00 72 1011.3
20260505094017 60 196 2.6 4.3 0.00 0.00 0.00 72 1011.4
20260505093910 60 174 2.6 4.3 0.00 0.00 0.00 72 1011.4
20260505093817 60 200 2.6 4.3 0.00 0.00 0.00 72 1011.4
20260505093725 60 193 1.7 6.1 0.00 0.00 0.00 72 1011.4
20260505093631 60 179 1.7 7.0 0.00 0.00 0.00 72 1011.3
20260505093544 60 179 2.6 7.8 0.00 0.00 0.00 72 1011.3
20260505093318 60 193 2.6 7.8 0.00 0.00 0.00 72 1011.3
20260505093225 60 167 2.6 7.8 0.00 0.00 0.00 72 1011.3
20260505093113 60 159 3.5 7.8 0.00 0.00 0.00 72 1011.2
20260505093021 60 178 3.5 7.8 0.00 0.00 0.00 72 1011.2
20260505092950 60 140 3.5 7.8 0.00 0.00 0.00 72 1011.2
20260505092819 60 231 3.5 7.8 0.00 0.00 0.00 72 1011.1
20260505092727 60 189 4.3 7.8 0.00 0.00 0.00 71 1011.2
20260505092635 60 139 5.2 7.8 0.00 0.00 0.00 72 1011.1
20260505092542 60 150 4.3 7.8 0.00 0.00 0.00 72 1011.1
20260505092428 60 180 4.3 7.8 0.00 0.00 0.00 71 1011.1
20260505092317 60 163 3.5 8.7 0.00 0.00 0.00 71 1011.1
20260505092225 60 209 3.5 8.7 0.00 0.00 0.00 71 1011.1
20260505092157 60 165 4.3 8.7 0.00 0.00 0.00 71 1011.2
20260505092106 60 161 3.5 8.7 0.00 0.00 0.00 71 1011.2
20260505091818 60 198 3.5 8.7 0.00 0.00 0.00 71 1011.2